Home > Weather > Fukuoka > Past weeks

Flag for Japan Weather for the Past 2 Weeks in Fukuoka, Japan

Now
63 °F

Partly sunny.


Feels Like: 63 °F
Forecast: 57 / 67 °F
Wind: 13 mph from Southeast

Location: Fukuoka Airport

Current Time: Feb 12, 2016 at 1:34:03 PM

Latest Report: Feb 12, 2016 at 1:00 PM


Visibility: N/A

Pressure: 30.12 "Hg

Humidity: 52%

Dew point: 45 °F

Location of FukuokaLocation

Historic Weather in Fukuoka — Graph

°F

Fukuoka Temperature Yesterday

Maximum temperature yesterday: 64 °F (at 2:00 PM)
Minimum temperature yesterday: 34 °F (at 6:30 AM)
Average temperature yesterday: 50 °F

High & Low Weather Summary for the Past Weeks

 TemperatureHumidityPressure
High64 °F (Feb 11, 2:00 PM)94% (Jan 29, 4:30 AM)30.36 "Hg (Jan 29, 4:30 AM)
Low32 °F (Feb 8, 4:00 AM)15% (Feb 11, 2:00 PM)29.98 "Hg (Jan 29, 2:00 PM)
Average46 °F65%30.17 "Hg
* Reported Jan 28 12:30 PM — Feb 12 12:30 PM, Fukuoka, Weather by CustomWeather, © 2016

Note: Actual official high and low records may vary slightly from our data, if they occured in-between our weather recording intervals... More about our weather records

Advertising

Fukuoka Weather History for the Previous 24 Hours

 ConditionsComfort  
Time TempWeatherWind HumidityBarometerVisibility
12:30 PM
Fri, Feb 12
61 °FPartly sunny.9 mph55%30.15 "HgN/A
12:00 PM61 °FBroken clouds.14 mph55%30.15 "HgN/A
11:30 AM57 °FLight rain. Broken clouds.15 mph67%30.18 "HgN/A
11:00 AM57 °FBroken clouds.12 mph63%30.18 "HgN/A
10:30 AM57 °FBroken clouds.14 mph59%30.18 "HgN/A
10:00 AM55 °FBroken clouds.13 mph63%30.21 "HgN/A
9:30 AM54 °FBroken clouds.13 mph63%30.21 "HgN/A
9:00 AM54 °FLight rain. Broken clouds.13 mph63%30.21 "HgN/A
8:30 AM52 °FBroken clouds.15 mph67%30.24 "HgN/A
8:00 AM52 °FLight rain. Clear.13 mph67%30.24 "HgN/A
7:00 AM52 °FLight rain. Clear.8 mph67%30.24 "HgN/A
6:30 AM50 °FLight rain. Clear.5 mph71%30.24 "HgN/A
6:00 AM50 °FClear.1 mph67%30.24 "Hg10 mi
5:30 AM50 °FClear.2 mph67%30.27 "Hg10 mi
5:00 AM50 °FClear.1 mph67%30.24 "Hg10 mi
4:30 AM50 °FPassing clouds.3 mph67%30.24 "HgN/A
4:00 AM48 °FClear.5 mph71%30.24 "Hg10 mi
3:30 AM50 °FClear.2 mph67%30.21 "Hg10 mi
3:00 AM48 °FClear.8 mph71%30.24 "Hg10 mi
2:30 AM50 °FClear.2 mph62%30.24 "Hg10 mi
2:00 AM50 °FClear.12 mph67%30.24 "Hg10 mi
1:30 AM50 °FClear.14 mph67%30.27 "Hg10 mi
1:00 AM50 °FClear.12 mph67%30.27 "Hg10 mi
12:30 AM50 °FClear.6 mph62%30.27 "Hg10 mi
12:00 AM52 °FClear.10 mph58%30.27 "Hg10 mi
11:30 PM
Thu, Feb 11
52 °FClear.12 mph58%30.27 "Hg10 mi
11:00 PM52 °FClear.10 mph58%30.27 "Hg10 mi
10:30 PM54 °FClear.6 mph51%30.27 "Hg10 mi
10:00 PM54 °FClear.7 mph54%30.27 "Hg10 mi
9:30 PM54 °FClear.10 mph51%30.30 "Hg10 mi
9:00 PM54 °FClear.5 mph54%30.30 "Hg10 mi
8:30 PM54 °FPassing clouds.3 mph54%30.27 "HgN/A
8:00 PM54 °FPassing clouds.3 mph54%30.27 "HgN/A
7:30 PM54 °FPassing clouds.3 mph54%30.27 "HgN/A
7:00 PM55 °FClear.No wind51%30.27 "Hg10 mi
6:30 PM57 °FClear.No wind44%30.27 "Hg10 mi
6:00 PM57 °FClear.1 mph48%30.27 "Hg10 mi
5:30 PM59 °FSunny.5 mph42%30.27 "Hg10 mi
5:00 PM61 °FPassing clouds.3 mph42%30.24 "HgN/A
4:30 PM61 °FSunny.7 mph39%30.27 "Hg10 mi
4:00 PM61 °FSunny.7 mph42%30.27 "Hg10 mi
3:30 PM63 °FPassing clouds.6 mph34%30.27 "HgN/A
3:00 PM63 °FPassing clouds.6 mph30%30.24 "HgN/A
2:30 PM64 °FSunny.3 mph15%30.27 "Hg10 mi
2:00 PM64 °FPassing clouds.7 mph15%30.27 "HgN/A
1:30 PM63 °FPassing clouds.8 mph16%30.27 "HgN/A
1:00 PM63 °FPassing clouds.8 mph20%30.30 "HgN/A
Weather by CustomWeather, © 2016

See weather overviewHow to use our weather pages